Hourly Data Report for April 11, 2009

All times are specified in Local Standard Time (LST). Add 1 hour to adjust for Daylight Saving Time where and when it is observed.

Metadata including Station Name, Province, Latitude, Longitude, Elevation, Climate ID, WMO ID, TC ID
HALIFAX STANFIELD INT'L A
NOVA SCOTIA
Latitude: 44°52'48.060" N Longitude: 63°30'00.050" W Elevation: 145.40 m
Climate ID: 8202250 WMO ID: 71395 TC ID: YHZ
Hourly Data Report for April 11, 2009
Temp Definition
°C

Dew Point Temp Definition
°C

Rel Hum Definition
%

Wind Dir Definition
10's deg
Wind Spd Definition
km/h

Visibility Definition
km

Stn Press Definition
kPa

Hmdx Definition

Wind Chill Definition

Weather Definition

TIME
00:00 2.6 -2.5 69 27 9 24.1 100.01 Mainly Clear
01:00 0.5 -2.5 80 25 6 24.1 100.01 Mainly Clear
02:00 0.3 -2.5 81 26 4 24.1 99.99 Mainly Clear
03:00 0.7 -2.0 82 25 6 24.1 100.00 Mainly Clear
04:00 0.5 -2.4 81 20 9 24.1 99.99 Mostly Cloudy
05:00 0.3 -2.2 83 19 9 24.1 99.97 Mostly Cloudy
06:00 0.3 -2.7 80 17 9 24.1 100.03 Cloudy
07:00 2.3 -0.9 79 15 6 24.1 100.05 Cloudy
08:00 2.8 -1.1 75 15 13 24.1 100.06 Cloudy
09:00 3.9 -0.4 73 15 13 24.1 100.02 Cloudy
10:00 6.6 -0.7 60 19 13 24.1 99.99 Rain Showers
11:00 4.1 0.8 79 14 22 24.1 99.92 Cloudy
12:00 3.7 3.1 96 12 17 6.4 99.88 Rain Showers,Fog
13:00 3.9 3.8 99 12 17 3.2 99.84 Rain Showers,Fog
14:00 3.7 3.4 98 10 22 2.4 99.73 Rain,Fog
15:00 3.7 3.4 98 9 17 3.2 99.67 Rain,Fog
16:00 3.0 2.8 99 7 15 4.8 99.58 Rain,Fog
17:00 3.1 2.8 98 6 17 4.0 99.48 Rain,Fog
18:00 2.9 2.7 99 6 17 4.0 99.48 Drizzle,Fog
19:00 2.7 2.7 100 2 19 3.2 99.37 Rain,Fog
20:00 2.8 2.7 99 7 17 4.0 99.36 Rain,Fog
21:00 2.8 2.6 99 4 22 3.2 99.24 Rain,Fog
22:00 2.8 2.6 99 6 19 9.7 99.12 Rain,Fog
23:00 2.8 2.7 99 4 13 4.0 99.04 Rain,Fog

Notes on Data Quality.

Legend
  • E = Estimated
  • M = Missing
  • NA = Not Available
  • ‡ = Partner data that is not subject to review by the National Climate Archives